This demonstration page uses our WeatherBlox Daily Observations layout. Learn more.

Left ArrowRight Arrow

36.17497, -115.13722

Hourly Observations for April 27, 2021

Temp ( °F °C ) Dew Point ( °F °C ) Humidity (%) Winds ( mph kmh ) Pressure ( in mb ) Visibility ( mi km ) Precip ( " mm )
12:53 am 00:53 Cloudy 58 14.4 38 3.3 48 48 N 15 24 29.71 1006 10 16.0934 N/A
1:53 am 01:53 Clear 57 13.9 37 2.8 47 47 N 9 15 29.71 1006 10 16.0934 N/A
2:53 am 02:53 Cloudy 56 13.3 37 2.8 49 49 NW 13 20 29.72 1006 10 16.0934 N/A
3:53 am 03:53 Cloudy 56 13.3 37 2.8 49 49 NW 15 24 29.73 1007 10 16.0934 N/A
4:53 am 04:53 Mostly Cloudy 55 12.8 36 2.2 49 49 WNW 17 28 29.75 1007 10 16.0934 N/A
5:53 am 05:53 Mostly Cloudy 54 12.2 35 1.7 49 49 NNW 12 19 29.78 1008 10 16.0934 N/A
6:53 am 06:53 Mostly Cloudy 53 11.7 36 2.2 52 52 N 10 17 29.81 1009 10 16.0934 N/A
7:53 am 07:53 Sunny 55 12.8 36 2.2 49 49 NNW 14 22 29.83 1010 10 16.0934 N/A
8:53 am 08:53 Mostly Sunny 58 14.4 35 1.7 42 42 N 12 19 29.84 1011 10 16.0934 N/A
9:53 am 09:53 Mostly Sunny 60 15.6 33 0.6 36 36 NW 6 9 29.85 1011 10 16.0934 N/A
10:53 am 10:53 undefined 60 15.6 36 2.2 41 41 NNE 15 24 29.88 1012 10 16.0934 N/A
11:53 am 11:53 Cloudy 61 16.1 34 1.1 36 36 NNW 14 22 29.87 1012 N/A N/A
12:22 pm 12:22 Mostly Cloudy 64 17.8 33 0.6 32 32 undefined N/A 29.78 1008 10 16.0934 N/A
12:53 pm 12:53 Mostly Cloudy 65 18.3 31 -0.6 28 28 undefined N/A 29.86 1011 10 16.0934 N/A
1:53 pm 13:53 Cloudy 65 18.3 30 -1.1 27 27 N 12 19 29.86 1011 10 16.0934 N/A
2:53 pm 14:53 Cloudy 65 18.3 30 -1.1 27 27 NNW 8 13 29.86 1011 10 16.0934 N/A
3:53 pm 15:53 Cloudy 66 18.9 30 -1.1 26 26 NNW 8 13 29.85 1011 10 16.0934 N/A
4:53 pm 16:53 Cloudy 67 19.4 29 -1.7 24 24 N 7 11 29.85 1011 10 16.0934 N/A
5:53 pm 17:53 Partly Cloudy 67 19.4 29 -1.7 24 24 NNW 6 9 29.86 1011 10 16.0934 N/A
6:53 pm 18:53 Sunny 68 20 28 -2.2 22 22 NNE 3 6 29.87 1011 10 16.0934 N/A
7:53 pm 19:53 Clear 67 19.4 28 -2.2 23 23 N N/A 29.88 1012 10 16.0934 N/A
8:53 pm 20:53 Mostly Clear 66 18.9 27 -2.8 23 23 N N/A 29.91 1013 10 16.0934 N/A
9:53 pm 21:53 Clear 62 16.7 28 -2.2 28 28 NNW 8 13 29.93 1014 10 16.0934 N/A
10:53 pm 22:53 Clear 61 16.1 27 -2.8 27 27 N 7 11 29.96 1015 10 16.0934 N/A
11:53 pm 23:53 Clear 60 15.6 27 -2.8 28 28 NW 8 13 29.97 1015 10 16.0934 N/A

Powered by AerisWeather